CAPE
0 0 0 0 0 0 0 0 0 0 0 0 0 0 0 394 202 282 21 324 581 1194 1303 870 741 1037 1216 1188 892 506 230 189 88 9 17 0 1 168 468 476 194 387 701 730 642 400 143 14 0
0 0 0 0 0 0 0 0 0 0 1 0 0 0 0 1023 1129 475 783 934 1001 1472 1275 1125 858 964 1110 1141 946 580 315 294 102 41 82 38 28 250 515 668 353 263 716 756 570 345 152 8 0
0 0 0 0 0 0 0 0 0 0 1 0 0 0 0 1394 1052 1376 1191 1416 1512 1587 1343 1447 946 951 1096 1024 957 666 393 186 38 47 72 39 18 201 651 763 585 361 140 247 347 194 13 0 0
0 0 0 0 0 0 0 0 0 0 0 0 0 0 0 17 1900 2415 1007 1854 1658 1697 1421 1442 1076 998 1061 1079 988 696 432 104 33 78 82 12 0 48 412 617 554 469 191 46 20 1 0 0 0
0 0 0 0 0 0 0 0 0 0 0 0 0 0 0 149 1400 2345 1238 2056 1894 1524 1956 1338 1080 1079 1187 1192 1065 733 392 135 155 190 152 97 11 0 89 301 406 300 113 107 39 0 0 0 0
0 0 0 0 0 0 0 0 0 0 0 0 0 0 36 190 1533 1806 1265 1789 1766 1395 1781 1138 1196 1149 1265 1336 1095 759 494 278 240 275 223 122 0 0 147 182 124 152 131 173 143 2 0 0 0
0 0 0 0 0 0 0 0 0 0 0 0 0 0 0 136 1273 1606 1321 1730 1511 1763 1712 944 1124 1336 1392 1336 978 766 656 508 442 438 297 72 0 55 22 0 0 14 171 261 117 10 0 0 0
0 0 0 0 0 0 0 0 0 0 0 0 0 0 0 354 909 1692 1430 1686 1503 1830 1365 709 805 998 986 1059 914 809 815 724 642 524 313 11 0 53 0 0 6 59 76 203 58 21 23 10 0
0 0 0 0 0 0 0 0 0 0 0 0 0 0 178 557 601 1848 1615 1769 1634 1683 1165 561 331 390 366 755 949 765 772 677 628 487 186 0 16 63 90 0 3 0 14 55 62 9 7 4 5
0 0 0 0 0 0 0 0 0 0 0 0 0 0 53 414 237 1101 1771 1779 1660 1653 1217 628 278 66 3 53 473 403 548 534 379 226 109 10 0 61 15 0 16 1 0 4 4 0 0 0 0
0 0 0 0 0 0 0 0 0 0 0 0 0 0 0 44 152 352 1201 1767 1581 1549 1298 649 311 46 0 24 103 73 122 70 60 39 150 31 0 78 0 78 33 48 0 0 0 0 0 0 0
0 0 0 0 0 0 0 0 0 0 0 0 0 0 0 0 0 17 510 1126 1639 1476 1402 839 604 290 110 529 71 185 222 118 49 64 184 0 41 108 12 52 88 169 118 1 49 0 0 0 0
0 0 0 0 0 0 0 0 0 0 0 0 0 0 0 0 0 1 121 457 1943 1631 1437 897 945 709 744 744 480 289 488 389 392 357 380 67 91 521 166 180 276 295 59 173 91 66 108 1 2
0 0 0 0 0 0 0 0 0 0 0 0 0 0 0 0 0 0 52 254 574 1752 1429 818 1180 1080 1141 1657 997 564 822 687 847 854 707 561 554 1004 661 654 466 154 387 143 393 285 180 177 65
0 0 0 0 0 0 0 0 0 0 0 0 0 0 0 0 0 0 0 40 481 1546 497 0 1754 1821 1541 2017 1501 827 1112 1101 1060 1229 1352 1122 940 1540 882 1189 697 701 414 414 251 240 170 154 132
0 0 0 0 0 0 0 0 0 0 0 0 0 0 0 0 0 0 0 0 212 1906 626 313 2556 2774 2144 2459 2406 1377 1641 1253 1347 1114 1681 1591 1504 1176 1710 1091 1017 1011 869 527 453 373 314 239 248
0 0 0 0 0 0 0 0 0 0 0 0 0 0 0 0 0 0 0 0 413 1645 2589 2490 2909 2913 2671 2336 2648 2098 1963 1681 1796 1303 1466 1618 1805 1600 1493 1644 1232 1312 977 847 769 877 848 606 687
0 0 0 0 0 0 0 0 0 0 0 0 0 0 0 0 0 0 0 0 885 1583 2983 2802 2765 2967 2875 2822 2883 2712 2459 2387 2205 1804 1817 2007 1994 1686 1391 1385 1497 1351 1293 1020 1071 724 721 668 717
0 0 0 0 0 0 0 0 0 0 0 0 0 0 0 0 0 0 0 0 1290 2194 3093 3116 2701 2602 2912 2666 2903 2779 2351 2458 2031 2308 2321 2456 2133 2014 2027 1593 1329 1240 1360 1477 1056 631 521 474 222
0 0 0 0 0 0 0 0 0 0 0 0 0 0 0 0 0 0 0 0 1876 3445 2962 2664 2659 2644 2862 2334 3022 2669 2253 2148 2162 1997 1972 2131 2076 1874 1740 1632 1644 1610 1676 1312 1039 591 373 259 219
3 0 0 0 0 0 0 0 0 0 0 0 0 0 0 0 0 0 0 0 3310 2609 1605 1284 1816 2619 2721 2405 2810 2396 2393 2423 1909 1948 2099 2096 1906 1625 1512 1432 1381 1361 1291 1105 743 368 33 7 37
0 0 0 0 0 1 2 0 1 0 0 0 0 0 0 0 0 0 0 171 2382 2566 971 0 82 1982 2371 2314 2553 2821 2471 2090 2094 2099 2063 1901 1763 1719 1450 1522 1202 1131 965 889 501 520 277 15 45
0 0 0 0 0 0 5 0 0 0 0 0 0 0 0 0 0 0 0 319 724 1770 2785 1992 1998 2300 2559 2261 2721 2415 2311 2101 2071 2016 1632 1588 1717 1282 1339 1114 1130 943 1269 1017 611 409 601 708 528
0 0 1 4 2 5 1 0 0 0 0 0 0 0 0 0 0 0 0 0 265 921 2049 2217 2866 2801 2536 2385 2120 2372 2277 1965 2079 1586 1419 1660 1335 1122 1295 1123 1125 1050 990 910 948 983 1030 1057 785
22 0 0 0 24 1 0 0 0 0 0 0 0 0 0 0 0 0 0 0 32 516 2047 2501 2535 2271 2012 1900 2232 2470 2329 1622 1532 1525 1320 1387 1267 1159 1336 1076 1114 1199 1234 995 1065 969 845 788 638
17 16 5 0 7 0 0 0 0 0 0 0 0 0 0 0 0 0 0 0 0 109 2077 2154 1896 1776 1621 1633 2109 2360 2067 1752 1710 1704 1578 1337 1198 1018 833 695 548 480 422 372 361 447 355 411 284
0 11 16 24 13 0 0 0 0 0 2 9 0 0 0 0 0 0 0 0 590 2352 2024 2096 1638 1409 1823 1491 1530 1680 1728 1568 1235 1065 902 624 397 353 249 249 233 121 68 63 77 88 57 125 106
29 40 72 53 17 11 1 0 0 0 0 0 63 2 0 0 0 0 415 1911 1924 1663 1671 1615 1419 1265 1177 1098 772 662 641 554 405 220 132 79 40 30 29 17 21 23 14 8 2 6 5 0 0
66 17 67 27 1 4 4 0 0 0 0 152 224 231 661 510 873 1096 1265 1283 1225 1153 1094 878 819 704 712 462 227 93 37 5 6 1 0 0 0 0 0 0 0 0 0 0 0 0 0 0 0
100 0 41 16 0 20 43 86 601 82 278 214 51 208 657 930 895 920 941 863 929 808 740 689 281 20 0 0 0 0 0 0 0 0 0 0 0 0 0 0 0 0 0 0 0 0 0 0 0
CIN
-0 -0 -0 -0 -0 -0 -0 -0 -0 -0 -0 -0 -0 -0 -0 -12 -112 -28 -221 -207 -264 -376 -448 -514 -479 -388 -316 -292 -325 -388 -484 -478 -536 -629 -586 -0 -269 -346 -185 -158 -259 -161 -67 -55 -59 -121 -222 -311 -0
-0 -0 -0 -0 -0 -0 -0 -0 -0 -0 -5 -0 -0 -0 -0 -12 -43 -197 -137 -95 -305 -404 -456 -468 -479 -413 -346 -312 -322 -374 -439 -419 -523 -565 -491 -540 -534 -281 -161 -101 -170 -201 -52 -46 -63 -122 -196 -183 -0
-0 -0 -0 -0 -0 -0 -0 -0 -0 -0 -9 -0 -0 -0 -0 -4 -17 -9 -92 -179 -324 -362 -440 -422 -464 -417 -346 -342 -325 -342 -385 -465 -566 -529 -472 -518 -544 -299 -108 -81 -101 -157 -232 -164 -112 -166 -298 -0 -0
-0 -0 -0 -0 -0 -0 -0 -0 -0 -0 -5 -0 -0 -0 -0 -82 -9 -26 -105 -170 -326 -337 -365 -417 -450 -417 -349 -324 -323 -337 -366 -507 -563 -497 -480 -552 -15 -419 -186 -114 -107 -121 -199 -276 -308 -53 -0 -0 -0
-0 -0 -0 -0 -0 -0 -0 -0 -0 -0 -0 -0 -0 -0 -0 -108 -51 -78 -96 -155 -236 -310 -285 -425 -440 -405 -341 -305 -295 -334 -379 -445 -434 -393 -393 -414 -538 -0 -326 -201 -141 -161 -249 -227 -261 -0 -0 -0 -0
-0 -0 -0 -0 -0 -0 -0 -0 -0 -0 -0 -1 -0 -0 -9 -48 -52 -102 -92 -114 -182 -273 -312 -430 -409 -390 -326 -277 -281 -321 -349 -388 -390 -347 -344 -381 -0 -0 -277 -246 -260 -233 -227 -194 -184 -34 -0 -0 -0
-0 -0 -0 -0 -0 -0 -0 -0 -0 -0 -0 -0 -0 -0 -0 -39 -16 -65 -87 -107 -165 -203 -292 -438 -406 -336 -292 -268 -292 -310 -296 -315 -315 -292 -305 -387 -0 -353 -353 -0 -44 -263 -215 -174 -219 -322 -0 -0 -0
-0 -0 -0 -0 -0 -0 -0 -0 -0 -0 -0 -0 -0 -0 -0 -18 -23 -26 -63 -69 -111 -155 -317 -448 -432 -382 -345 -306 -300 -296 -266 -264 -257 -257 -299 -343 -9 -350 -20 -0 -159 -271 -246 -176 -241 -314 -330 -318 -0
-0 -0 -0 -0 -0 -0 -0 -0 -0 -0 -0 -0 -0 -0 -7 -21 -15 -7 -29 -18 -35 -93 -298 -401 -484 -464 -420 -336 -287 -294 -265 -263 -249 -256 -344 -0 -175 -334 -293 -0 -45 -0 -310 -242 -237 -316 -340 -239 -329
-0 -0 -0 -0 -0 -0 -0 -0 -0 -0 -0 -0 -0 -0 -6 -32 -27 -4 -8 -2 -3 -43 -217 -337 -447 -516 -289 -473 -397 -381 -326 -292 -310 -337 -385 -195 -0 -297 -118 -0 -226 -41 -0 -136 -204 -0 -0 -0 -0
-0 -0 -0 -0 -0 -0 -0 -0 -0 -0 -0 -0 -0 -0 -0 -21 -15 -8 -3 -3 -3 -17 -129 -259 -413 -484 -0 -415 -504 -497 -444 -426 -407 -398 -355 -414 -0 -251 -0 -232 -293 -280 -0 -0 -0 -0 -0 -0 -0
-0 -0 -0 -0 -0 -0 -0 -0 -0 -0 -0 -0 -0 -0 -0 -0 -0 -4 -3 -2 -6 -13 -57 -194 -307 -338 -349 -346 -479 -392 -359 -371 -393 -377 -313 -0 -338 -212 -341 -264 -200 -159 -176 -24 -186 -4 -0 -0 -0
-0 -0 -0 -0 -0 -0 -0 -0 -0 -0 -0 -0 -0 -0 -0 -0 -0 -0 -9 -3 -6 -8 -19 -113 -251 -240 -202 -280 -290 -330 -254 -258 -248 -244 -213 -302 -248 -78 -126 -94 -53 -102 -109 -106 -75 -76 -72 -41 -77
-0 -0 -0 -0 -0 -0 -0 -0 -0 -0 -0 -0 -0 -0 -0 -0 -0 -0 -63 -5 -12 -31 -83 -205 -200 -201 -153 -68 -190 -230 -153 -168 -129 -121 -128 -124 -88 -20 -39 -17 -25 -29 -10 -19 -21 -25 -16 -4 -11
-0 -0 -0 -0 -0 -0 -0 -0 -0 -0 -0 -0 -0 -0 -0 -0 -0 -0 -0 -70 -9 -74 -138 -0 -24 -117 -116 -37 -111 -153 -80 -79 -59 -27 -44 -61 -40 -3 -24 -7 -26 -12 -11 -4 -15 -26 -31 -35 -40
-0 -0 -0 -0 -0 -0 -0 -0 -0 -0 -0 -0 -0 -0 -0 -0 -0 -0 -0 -0 -43 -42 -311 -3 -16 -57 -82 -29 -17 -72 -18 -21 -23 -19 -17 -41 -33 -18 -7 -7 -10 -3 -2 -7 -8 -17 -26 -28 -14
-0 -0 -0 -0 -0 -0 -0 -0 -0 -0 -0 -0 -0 -0 -0 -0 -0 -0 -0 -0 -75 -8 -28 -61 -68 -55 -39 -24 -3 -12 -5 -15 -7 -23 -24 -28 -27 -23 -9 -6 -6 -6 -5 -10 -4 -2 -6 -9 -13
-0 -0 -0 -0 -0 -0 -0 -0 -0 -0 -0 -0 -0 -0 -0 -0 -0 -0 -0 -0 -11 -10 -34 -49 -26 -10 -8 -4 -3 -2 -2 -4 -14 -18 -23 -16 -19 -21 -16 -11 -12 -5 -8 -11 -6 -14 -16 -17 -13
-0 -0 -0 -0 -0 -0 -0 -0 -0 -0 -0 -0 -0 -0 -0 -0 -0 -0 -0 -0 -6 -14 -34 -47 -23 -7 -20 -13 -2 -4 -11 -10 -10 -7 -12 -16 -19 -11 -9 -14 -17 -18 -10 -15 -25 -30 -25 -22 -49
-0 -0 -0 -0 -0 -0 -0 -0 -0 -0 -0 -0 -0 -0 -0 -0 -0 -0 -0 -0 -5 -26 -42 -27 -37 -21 -22 -35 -2 -24 -13 -23 -15 -9 -7 -4 -12 -8 -8 -17 -7 -2 -3 -17 -14 -15 -37 -43 -30
-4 -3 -0 -0 -0 -0 -0 -0 -0 -0 -0 -0 -0 -0 -0 -0 -0 -0 -0 -0 -16 -46 -59 -101 -20 -9 -23 -58 -12 -30 -9 -5 -21 -6 -4 -4 -4 -4 -7 -7 -6 -8 -9 -10 -10 -32 -101 -83 -110
-0 -0 -0 -0 -0 -3 -5 -0 -1 -0 -0 -0 -0 -0 -0 -0 -0 -0 -0 -104 -8 -17 -116 -0 -387 -3 -38 -61 -22 -12 -24 -23 -11 -11 -11 -3 -12 -3 -2 -3 -5 -4 -10 -13 -32 -30 -65 -97 -86
-0 -0 -0 -0 -0 -0 -21 -0 -0 -0 -0 -0 -0 -0 -0 -0 -0 -0 -0 -104 -40 -14 -3 -8 -7 -38 -54 -64 -9 -18 -13 -7 -8 -8 -12 -22 -15 -14 -3 -8 -5 -11 -4 -10 -34 -42 -34 -20 -23
-0 -0 -7 -4 -8 -14 -6 -2 -0 -0 -0 -0 -0 -0 -0 -0 -0 -0 -0 -0 -185 -29 -5 -25 -8 -18 -34 -26 -42 -15 -7 -2 -10 -25 -29 -17 -25 -42 -4 -12 -9 -16 -25 -20 -11 -18 -21 -10 -18
-14 -3 -0 -10 -1 -29 -0 -1 -0 -0 -0 -0 -0 -0 -0 -0 -0 -0 -0 -0 -141 -68 -10 -4 -16 -24 -40 -57 -26 -8 -6 -14 -19 -32 -29 -18 -41 -39 -14 -29 -20 -24 -14 -19 -11 -13 -14 -14 -16
-41 -4 -5 -2 -14 -0 -0 -0 -0 -0 -0 -0 -0 -0 -0 -0 -0 -0 -0 -0 -0 -48 -32 -53 -48 -52 -45 -41 -9 -3 -12 -6 -27 -15 -9 -12 -32 -46 -51 -74 -105 -112 -110 -121 -114 -72 -56 -41 -73
-8 -20 -6 -6 -8 -0 -0 -0 -0 -0 -22 -17 -0 -0 -0 -0 -0 -0 -0 -0 -76 -26 -46 -51 -62 -53 -16 -26 -14 -7 -7 -13 -81 -64 -56 -99 -127 -134 -144 -138 -148 -176 -175 -189 -189 -196 -183 -133 -136
-11 -17 -9 -10 -33 -5 -0 -0 -0 -0 -9 -0 -66 -14 -0 -0 -0 -0 -64 -108 -75 -65 -57 -55 -70 -88 -56 -40 -80 -110 -142 -154 -187 -234 -251 -245 -241 -233 -233 -205 -228 -245 -246 -224 -171 -167 -172 -0 -0
-4 -59 -10 -19 -36 -5 -2 -0 -0 -0 -0 -36 -178 -212 -132 -108 -124 -159 -140 -131 -159 -143 -97 -128 -121 -100 -33 -72 -152 -242 -119 -96 -107 -127 -0 -0 -0 -0 -0 -0 -0 -0 -0 -0 -0 -0 -0 -0 -0
-3 -0 -50 -17 -5 -47 -19 -7 -116 -23 -39 -138 -343 -272 -166 -133 -132 -114 -117 -160 -154 -123 -106 -102 -146 -289 -20 -0 -0 -0 -0 -0 -0 -0 -0 -0 -0 -0 -0 -0 -0 -0 -0 -0 -0 -0 -0 -0 -0
Wind_Speed
31 29 25 28 29 29 39 39 38 37 22 21 19 19 23 24 12 17 7 23 12 19 22 21 20 19 19 19 18 18 18 17 16 15 14 15 14 14 15 15 16 16 15 15 15 15 15 17 17
28 26 26 29 36 40 42 39 41 38 23 16 20 23 25 15 12 8 20 14 16 18 18 19 20 20 20 19 18 18 17 17 16 15 14 14 14 15 15 15 16 15 15 15 14 13 14 15 15
26 29 28 32 43 46 44 39 34 36 9 14 19 21 24 10 10 8 10 15 13 14 15 14 17 19 20 19 18 17 18 17 15 14 14 14 14 14 14 14 14 15 15 14 13 12 13 13 14
21 24 29 46 45 50 51 44 43 34 12 12 22 23 17 11 11 8 10 12 10 11 14 13 14 16 17 17 17 15 16 17 16 13 13 13 13 13 12 12 13 13 13 12 12 11 11 12 12
27 26 39 46 54 53 48 49 46 40 27 13 19 25 16 12 9 6 3 8 7 9 8 10 12 14 15 16 16 17 16 14 13 12 13 13 13 13 12 11 11 11 11 11 10 10 10 10 10
29 33 43 51 49 51 52 49 47 42 38 25 17 19 17 8 8 5 2 4 5 6 6 8 8 11 13 13 15 17 17 16 15 13 13 12 13 12 11 10 10 10 9 9 9 9 9 8 7
35 34 45 48 46 47 47 42 52 45 38 22 18 17 17 8 5 3 3 3 5 6 4 6 7 7 9 10 10 12 13 13 14 13 12 12 12 11 10 9 9 9 8 9 8 8 7 7 7
31 40 48 47 48 50 39 38 39 45 43 24 22 16 21 3 3 1 4 5 6 5 4 7 7 6 6 5 6 8 9 10 10 10 10 11 11 9 8 7 8 8 8 8 8 7 7 7 8
30 40 50 50 47 42 39 41 37 35 41 29 30 25 9 6 4 3 4 6 7 6 5 8 7 7 6 5 4 5 6 7 8 9 7 7 7 6 6 7 7 8 8 8 8 8 8 8 10
27 36 39 45 45 46 43 40 39 32 33 32 29 29 18 9 11 8 7 9 9 8 8 9 9 8 8 6 5 4 5 5 5 6 6 6 6 6 5 6 6 8 8 8 8 9 11 12 13
29 38 37 45 47 43 45 42 41 37 35 34 34 32 24 13 14 13 11 12 12 11 10 12 12 11 10 6 5 3 3 3 5 5 5 4 5 5 7 9 9 10 9 10 9 10 12 12 14
38 35 43 49 42 39 44 40 40 33 32 34 29 31 32 19 19 20 16 16 15 16 14 14 13 11 10 8 6 4 3 2 3 3 3 4 5 6 8 10 9 9 11 11 11 11 10 11 13
44 44 45 46 47 48 43 44 42 39 27 25 26 25 33 20 19 20 22 18 17 18 19 18 14 10 9 7 5 5 3 3 2 2 2 3 5 8 9 14 13 8 11 9 11 12 13 12 14
42 43 48 46 41 41 42 43 32 43 35 30 32 29 27 27 16 21 21 23 21 18 18 23 16 11 9 4 6 5 3 3 2 2 2 2 5 9 10 12 14 16 17 15 14 16 19 20 21
48 50 47 49 46 45 39 48 48 31 33 36 32 31 28 22 20 18 22 29 25 19 24 8 11 10 10 6 5 4 1 1 1 3 1 1 3 10 8 10 9 12 13 17 21 24 25 26 24
46 50 58 49 43 42 35 61 41 36 32 34 31 32 28 28 25 21 20 23 28 11 16 31 18 11 10 8 4 3 1 2 2 4 2 1 4 6 12 11 16 15 15 17 19 19 20 20 22
50 53 55 52 40 37 37 62 38 32 29 35 31 29 29 28 26 20 17 19 23 22 15 10 10 12 12 12 7 3 5 3 7 7 8 5 7 8 11 14 17 20 17 17 18 19 23 24 26
52 53 48 51 45 41 46 50 44 35 36 25 28 23 28 27 24 22 19 16 17 21 15 11 12 12 10 10 9 7 8 7 9 9 11 9 10 13 14 15 19 22 21 20 23 24 25 25 27
49 49 51 47 34 40 48 46 40 37 32 28 25 23 21 26 18 17 18 15 13 16 13 12 11 11 9 8 9 8 11 10 12 12 12 11 12 13 14 17 19 21 21 21 23 25 26 26 25
54 54 54 45 37 44 43 47 38 33 38 28 26 21 22 20 19 16 16 15 14 11 11 12 12 11 12 11 11 11 11 13 14 14 13 12 13 14 15 16 19 22 22 24 23 25 24 24 23
55 55 54 50 38 41 43 44 40 36 34 35 29 28 21 19 18 16 16 14 13 13 12 10 15 14 16 11 12 11 11 10 12 11 11 11 11 14 17 21 22 23 24 24 23 21 19 21 23
57 48 50 48 46 44 37 47 36 35 38 39 33 23 24 18 17 16 16 15 10 7 10 14 16 18 13 10 11 10 10 9 11 8 7 11 17 20 20 20 23 24 24 23 22 19 19 23 25
53 44 44 49 49 44 35 41 42 32 43 37 29 23 23 22 17 16 17 15 11 9 7 16 12 10 10 10 11 9 9 10 9 6 9 14 16 19 21 22 22 23 22 23 20 19 21 22 24
44 46 41 43 46 53 44 40 43 41 38 34 32 24 21 19 19 17 15 14 11 9 8 8 8 6 7 9 8 8 8 6 4 4 11 13 16 18 19 21 20 21 21 21 22 23 23 23 22
39 44 47 47 53 52 47 46 40 33 41 32 28 28 22 19 18 18 14 14 11 10 10 8 8 7 6 6 5 6 6 6 6 9 11 11 16 17 18 18 18 19 21 22 22 23 24 24 24
42 46 51 47 48 50 45 52 43 34 26 25 24 23 22 21 18 17 18 15 10 12 11 7 5 5 5 4 4 6 6 7 10 13 11 13 15 17 18 19 20 20 21 22 24 23 25 23 25
30 47 41 43 36 45 46 45 36 29 16 8 18 21 20 20 19 17 16 15 10 10 8 5 4 4 4 5 6 6 8 7 9 11 12 15 16 16 17 18 18 21 22 22 23 23 26 28 29
49 35 41 43 43 47 44 44 41 37 20 14 9 15 18 17 18 16 12 12 10 7 5 3 1 2 4 4 4 5 6 8 11 12 14 16 18 19 20 21 21 22 22 24 24 25 29 32 33
42 40 41 40 28 38 42 44 36 31 22 15 10 8 8 10 12 12 11 10 9 5 3 2 0 1 3 2 3 5 7 9 11 13 14 16 18 20 21 22 22 24 25 27 28 29 31 32 35
47 31 47 44 39 34 33 28 24 29 20 17 12 7 8 9 10 11 10 10 7 5 4 2 2 3 3 3 4 6 8 10 12 14 16 18 20 22 24 25 26 28 29 30 31 34 35 37 37
Wind_Direction
271 272 279 276 267 264 252 249 239 252 283 279 294 290 286 320 308 314 269 202 89 101 114 107 103 99 100 100 97 94 94 90 84 77 71 68 68 69 70 68 66 65 61 62 67 61 56 59 59
272 271 271 270 257 254 248 246 247 250 290 285 279 278 279 339 13 74 98 107 98 105 111 107 109 104 105 100 98 96 94 90 87 80 70 66 71 76 78 73 70 65 65 66 63 56 54 60 60
274 264 264 259 253 250 246 248 251 248 310 288 279 278 282 327 41 53 84 102 99 104 109 105 108 106 109 103 99 97 98 93 88 80 77 76 79 80 79 70 66 65 66 65 59 51 54 59 61
272 266 264 251 253 246 240 245 245 256 282 289 271 275 281 313 312 1 88 102 96 102 113 112 108 106 106 102 99 96 97 97 94 84 78 81 82 85 81 68 65 62 61 60 56 51 53 59 57
261 262 254 253 250 246 248 239 242 256 266 288 275 268 285 298 311 323 91 107 106 113 108 113 110 106 104 103 100 101 97 91 85 79 81 84 86 92 86 71 61 52 50 48 44 41 47 57 55
258 255 253 251 254 252 248 245 248 256 264 269 276 276 290 305 297 295 193 147 124 127 112 122 113 106 105 102 101 104 102 100 97 88 85 83 88 86 80 71 65 60 48 46 34 22 28 36 35
255 254 254 255 257 254 254 256 248 258 263 269 273 265 274 298 303 291 194 164 140 131 121 135 125 112 105 103 97 97 96 97 98 92 90 90 90 85 81 67 54 49 47 49 40 31 27 17 11
257 257 256 255 254 254 262 259 258 256 258 273 267 276 271 262 289 266 183 167 156 146 132 149 140 127 119 106 96 89 86 87 88 86 81 86 89 84 65 38 22 13 12 12 15 14 7 358 350
258 257 254 253 254 259 262 261 259 260 256 263 259 267 293 275 280 262 208 186 177 172 152 156 156 148 137 127 106 85 77 79 79 80 61 66 59 49 31 16 12 8 0 0 360 355 349 340 331
249 255 252 256 258 257 259 261 259 265 259 260 256 259 267 257 260 253 229 207 194 187 173 168 166 162 152 137 128 103 83 74 71 67 62 45 56 39 22 6 2 349 348 348 342 335 328 323 322
248 221 262 256 257 260 259 260 261 261 255 257 258 257 255 258 256 252 241 226 211 202 195 181 173 171 165 155 140 114 86 69 82 84 69 57 35 13 350 339 338 334 332 331 329 328 320 318 316
255 255 258 252 259 261 259 264 261 257 259 261 259 257 253 252 257 256 248 244 229 212 205 191 181 182 176 157 144 139 106 85 65 61 50 26 13 2 353 327 329 336 331 320 320 318 316 316 315
253 257 257 257 256 258 264 261 257 259 259 257 262 257 253 251 254 254 255 251 234 222 208 194 185 187 196 167 152 150 140 113 77 84 67 31 -0 349 343 326 326 326 335 324 324 319 312 309 312
258 258 256 256 258 259 259 260 263 254 262 261 256 265 254 256 250 257 256 258 251 229 258 204 181 179 200 214 162 155 148 133 101 108 91 56 347 341 338 335 331 325 328 329 328 325 323 318 316
256 256 256 252 253 256 262 256 254 260 259 260 256 257 255 259 255 262 265 257 262 245 243 269 154 172 190 223 182 161 163 158 4 327 135 80 356 336 339 342 341 334 331 325 321 319 319 317 317
255 252 248 249 251 254 254 242 256 258 258 257 257 254 253 258 257 263 259 261 258 243 192 186 148 187 203 222 229 181 332 288 298 327 347 300 342 326 337 331 330 330 330 330 328 324 322 319 319
247 248 246 249 252 250 248 230 256 261 253 256 254 253 255 257 259 252 252 260 253 262 238 202 213 212 214 219 242 220 289 275 307 310 319 306 317 329 322 327 328 327 325 322 323 321 321 317 317
242 244 249 247 247 249 249 252 254 258 260 244 252 247 255 255 251 253 255 248 249 256 233 217 218 216 222 237 261 264 282 283 313 318 320 318 320 322 321 318 320 325 326 321 321 322 319 319 318
249 249 247 251 253 248 249 251 254 251 258 254 251 239 246 258 246 236 241 242 221 243 243 241 239 242 229 241 252 255 274 283 290 311 316 315 318 321 323 320 318 321 319 318 317 317 318 320 324
246 247 247 250 250 250 249 250 251 251 251 257 251 248 245 244 250 244 234 235 217 227 229 241 246 245 246 241 253 258 269 282 293 303 310 311 312 320 324 322 321 322 321 319 318 320 321 321 326
243 242 243 245 251 249 250 250 245 247 253 253 257 257 249 238 230 229 216 212 205 217 213 218 249 245 244 234 244 260 274 286 294 299 311 317 324 327 323 322 321 320 319 318 319 322 325 324 329
241 240 242 243 245 246 240 245 243 244 252 252 249 246 249 242 225 223 206 200 206 201 189 222 200 191 234 232 240 249 265 277 291 300 319 324 322 322 324 325 324 324 323 323 327 327 326 322 321
241 242 240 242 243 248 240 242 245 245 248 246 241 239 244 242 231 223 197 204 221 225 204 170 180 202 228 225 247 248 270 279 292 304 325 327 327 326 325 327 327 326 327 325 327 328 326 324 321
239 239 242 238 240 241 241 238 243 245 244 248 242 232 236 232 236 225 196 200 219 215 199 187 193 206 207 226 231 244 258 273 305 335 327 330 332 332 330 331 332 333 332 330 328 327 324 324 324
238 228 229 234 231 235 237 241 244 248 250 246 242 231 221 232 221 222 206 198 203 219 190 184 169 171 185 199 222 234 279 326 331 336 334 336 339 340 339 340 341 339 336 335 334 332 328 329 328
234 227 225 228 228 229 235 236 240 247 278 237 237 223 218 222 224 215 212 198 202 213 191 180 180 204 220 234 259 297 311 328 336 336 345 344 345 346 347 344 343 341 342 341 334 334 330 331 327
231 232 226 232 238 233 233 238 241 248 272 262 227 213 211 217 221 222 222 204 196 166 182 170 220 252 275 273 288 308 319 332 341 341 347 347 348 351 349 349 347 341 341 343 338 334 325 324 322
232 232 220 228 233 229 230 231 234 236 237 239 251 194 212 210 216 214 201 167 166 168 153 186 197 283 286 296 313 334 346 346 347 347 347 348 348 351 348 347 348 343 341 337 336 334 323 320 320
224 230 223 226 235 231 228 233 234 232 218 212 215 213 220 191 174 168 166 166 164 151 155 147 105 355 298 312 352 353 350 349 351 352 353 352 349 349 345 344 347 342 335 331 327 327 323 323 322
210 224 224 221 224 237 238 231 260 228 193 199 206 201 193 171 161 155 152 149 146 155 145 112 65 61 74 32 6 354 355 358 357 355 352 349 345 341 340 340 339 339 338 330 325 318 320 320 323